Regional Weather Roundup
Issued by NWS

Home | Current Version | Previous Version | Graphics & Text | Print | Product List | Glossary On
Versions: 1 2 3 4 5 6 7 8 9 10 11 12 13 14 15 16 17 18 19 20 21 22 23 24 25 26 27 28 29 30 31 32 33 34 35 36 37 38 39 40 41 42 43 44 45 46 47 48 49 50
000
ASUS43 KLOT 230708
RWRIL

ILLINOIS REGIONAL WEATHER ROUNDUP
NATIONAL WEATHER SERVICE CHICAGO/ROMEOVILLE IL
100 AM CST THU NOV 23 2017

NOTE: "FAIR" INDICATES FEW OR NO CLOUDS BELOW 12,000 FEET WITH NO
SIGNIFICANT WEATHER AND/OR OBSTRUCTIONS TO VISIBILITY.

* THESE STATIONS ARE NOT UNDER NWS QUALITY CONTROL. THEY ALSO MAY NOT
  REPORT WEATHER SUCH AS PRECIPITATION OR FOG.

ILZ001-002-007-009-015-016-024-230800-
NORTHWEST ILLINOIS

CITY           SKY/WX    TMP DP  RH WIND       PRES   REMARKS
MOLINE         CLOUDY    35  18  49 SW10      30.12F WCI  27
STERLING*        N/A     32  22  66 MISG        N/A
SAVANNA*       CLOUDY    33  20  59 S8        30.12F WCI  26
$$

ILZ003-004-008-010-011-017-018-230800-
NORTH CENTRAL ILLINOIS

CITY           SKY/WX    TMP DP  RH WIND       PRES   REMARKS
ROCKFORD       CLOUDY    32  23  69 S7        30.15F WCI  26
FREEPORT*      CLOUDY    32  20  62 S9        30.13F WCI  24
ROCHELLE*      CLOUDY    31  24  75 S8        30.14F WCI  23
DE KALB*       CLOUDY    31  22  68 S9        30.14F WCI  23
PERU*          CLOUDY    31  22  68 S5        30.17F WCI  26
$$

ILZ005-006-012>014-019>023-230800-
NORTHEAST ILLINOIS

CITY           SKY/WX    TMP DP  RH WIND       PRES   REMARKS
CHICAGO-OHARE  CLOUDY    33  18  53 SW8       30.15F WCI  26
CHICAGO-MIDWAY CLOUDY    33  19  56 SW9       30.16F WCI  25
AURORA         CLOUDY    31  22  69 S7        30.15F WCI  24
LANSING*       CLOUDY    31  23  72 S6        30.17F WCI  25
JOLIET*        CLOUDY    33  21  62 SW5       30.17F WCI  28
WAUKEGAN       CLOUDY    32  19  58 SW8       30.12F WCI  25
DUPAGE AIRPORT CLOUDY    31  20  63 SW8       30.14F WCI  23
KANKAKEE*      CLOUDY    31  23  73 S7        30.18F WCI  24
WHEELING       CLOUDY    33  18  53 SW6       30.16F WCI  28
MORRIS*        CLOUDY    31  22  67 S7        30.16F WCI  25
ROMEOVILLE*    CLOUDY    32  21  64 SW7       30.16F WCI  25
NORTHERLY ISL    N/A     32  16  52 S5          N/A  WCI  27
$$

LMZ740>746-230800-
SOUTHERN LAKE MICHIGAN

STATION/POSITION SKY/WX   TEMP    WIND        PRES    VSBY  WAVE
                          AIR SEA DIR/SP/G                  HT/PER
                          (F)     (DEG/KT/KT) (MB)    (MI)  (FT/S)
SOUTHERN BUOY              36 47  280/ 16/ 19 1021.1F         3/ 4
HARRISON CRIB              34     210/ 14/ 15   N/A
BURNHAM HARBOR             33     190/  4/ 10   N/A
CALUMET HARBOR                    200/  6/  8 1020.8F
BURNS HARBOR               31     210/  8/ 12 1022.7
MICHIGAN CITY              30     180/  8/  9   N/A
$$

ILZ025>027-034>036-040-047-049-050-058-095>099-230800-
WEST-CENTRAL ILLINOIS

CITY           SKY/WX    TMP DP  RH WIND       PRES   REMARKS
QUINCY         CLEAR     29  20  69 S7        30.15F WCI  22
GALESBURG*     CLOUDY    33  22  66 S5        30.15F WCI  28
MACOMB*        CLOUDY    32  22  66 S7        30.17F WCI  25
JACKSONVILLE*  CLOUDY    32  21  63 S8        30.18F WCI  25
PITTSFIELD*    MOCLDY    31  21  64 S5        30.19S WCI  27
$$

ILZ028>032-037-038-041>044-048-051>054-059>061-230800-
CENTRAL ILLINOIS

CITY           SKY/WX    TMP DP  RH WIND       PRES   REMARKS
PONTIAC        CLOUDY    32  24  71 S9        30.18F WCI  24
BLOOMINGTON    CLOUDY    28  23  81 SW7       30.18F WCI  21
DECATUR        CLOUDY    31  22  69 SW5       30.21F WCI  26
PEORIA         CLOUDY    31  20  63 SW7       30.18F WCI  24
LACON*         CLOUDY    32  19  56 S5        30.16F WCI  28
LINCOLN*       PTCLDY    30  25  80 S6        30.19F WCI  24
SPRINGFIELD    MOCLDY    31  22  69 S6        30.20F WCI  25
TAYLORVILLE    CLOUDY    31  23  73 S5        30.21F WCI  26
$$

ILZ033-039-045-046-055>057-062-063-230800-
EAST-CENTRAL ILLINOIS

CITY           SKY/WX    TMP DP  RH WIND       PRES   REMARKS
CHAMPAIGN      CLOUDY    29  23  78 SW5       30.21F WCI  24
DANVILLE*      CLOUDY    29  25  84 CALM      30.18F
RANTOUL*       CLOUDY    32  26  79 S5        30.19F WCI  27
MATTOON        CLOUDY    28  24  85 CALM      30.20F
PARIS*         CLOUDY    29  26  89 CALM      30.22F
$$

ILZ079-100>102-230800-
SOUTHWEST ILLINOIS

CITY           SKY/WX    TMP DP  RH WIND       PRES   REMARKS
ALTON          CLOUDY    28  24  84 CALM      30.21F
BELLEVILLE     CLOUDY    31  24  75 CALM      30.21F
CAHOKIA*       CLOUDY    31  21  66 CALM      30.21F
SPARTA*        CLOUDY    30  25  79 CALM      30.23F
$$

ILZ064>066-069>071-074>076-080>082-084>086-088>090-092>094-230800-
SOUTH-CENTRAL ILLINOIS

CITY           SKY/WX    TMP DP  RH WIND       PRES   REMARKS
CARBONDALE     PTCLDY    27  26  96 CALM      30.23F
CAIRO*         CLOUDY    24  22  91 CALM      30.23F
EFFINGHAM*     CLOUDY    28  27  94 CALM      30.24S
MARION         PTCLDY    27  27  98 CALM      30.24F
MT. VERNON     CLOUDY    25  24  96 CALM      30.23F
CENTRALIA*     CLOUDY    28  27  93 CALM      30.21F
SALEM*         PTCLDY    31  24  74 CALM      30.22F
METROPOLIS*    PTCLDY    25  22  87 CALM      30.24F
$$

ILZ067-068-072-073-078-083-087-091-230800-
SOUTHEAST ILLINOIS

CITY           SKY/WX    TMP DP  RH WIND       PRES   REMARKS
LAWRENCEVILLE  PTCLDY    29  23  78 NW3       30.24F
FLORA*         MOCLDY    28  26  90 CALM      30.24S
FAIRFIELD*     PTCLDY    26  24  92 CALM      30.23S
HARRISBURG*    CLOUDY    24  23  95 CALM      30.24F
ROBINSON*      PTCLDY    26  25  95 CALM      30.24F
CARMI*         CLOUDY    23  22  93 CALM      30.23F
$$

ABBREVIATIONS USED IN REMARKS
   TC - TEMPERATURE IN CELSIUS
  WCI - WIND CHILL INDEX
   HX - HEAT INDEX
  VSB - VISIBILITY
$$




USA.gov is the U.S. government's official web portal to all federal, state and local government web resources and services.